Location: St. Louis
(38.6270°N, 90.1994°W)
Time: 07:13:43
(UTC-06:00)

Transit 2A - Pass Details

Date: 09 December 2021
Orbit: 591 x 967 km, 66.7° (Epoch: 20 January)

Event Time Altitude Azimuth Distance (km) Brightness Sun altitude
Rises 06:56:27 0° 337° (NNW) 3,662 9.0 -2.7°
Reaches altitude 10° 06:59:15 10° 345° (NNW) 2,708 8.4 -2.2°
Maximum altitude 07:05:11 39° 53° (NE) 1,370 7.6 -1.2°
Drops below altitude 10° 07:10:50 10° 122° (ESE) 2,572 11.1 -0.2°
Sets 07:13:25 0° 129° (SE) 3,459 11.8 0.2°
